Time,TemperatureF,DewpointF,PressureIn,WindDirection,WindDirectionDegrees,WindSpeedMPH,WindSpeedGustMPH,Humidity,HourlyPrecipIn,Conditions,Clouds,dailyrainin,SoftwareType,DateUTC
2013-07-09 00:01:00,69.0,67.0,-100.00,WNW,285,2.0,7.0,95,3.94,,,-99.99,,2013-07-09 04:01:00,
2013-07-09 00:22:00,69.0,67.0,-100.00,SW,225,1.0,6.0,96,1.10,,,-99.99,,2013-07-09 04:22:00,
2013-07-09 00:34:00,68.0,67.0,-100.00,South,190,3.0,11.0,96,0.00,,,-99.99,,2013-07-09 04:34:00,
2013-07-09 00:53:00,68.0,67.0,-100.00,SSW,200,4.0,6.0,96,0.55,,,-99.99,,2013-07-09 04:53:00,
2013-07-09 01:11:00,68.0,67.0,-100.00,South,190,1.0,4.0,96,0.00,,,-99.99,,2013-07-09 05:11:00,
2013-07-09 01:52:00,69.0,68.0,-100.00,South,185,2.0,4.0,96,0.00,,,-99.99,,2013-07-09 05:52:00,
2013-07-09 02:22:00,69.0,68.0,-100.00,SSW,205,4.0,8.0,96,0.00,,,-99.99,,2013-07-09 06:22:00,
2013-07-09 02:33:00,69.0,68.0,-100.00,SSW,195,3.0,6.0,95,0.00,,,-99.99,,2013-07-09 06:33:00,
2013-07-09 03:22:00,69.0,67.0,-100.00,SSW,200,2.0,9.0,95,0.00,,,-99.99,,2013-07-09 07:22:00,
2013-07-09 04:11:00,68.0,67.0,-100.00,South,190,4.0,9.0,95,0.00,,,-99.99,,2013-07-09 08:11:00,
2013-07-09 04:22:00,68.0,67.0,-100.00,SE,125,1.0,7.0,95,0.00,,,-99.99,,2013-07-09 08:22:00,
2013-07-09 04:33:00,68.0,67.0,-100.00,SE,130,2.0,6.0,96,0.00,,,-99.99,,2013-07-09 08:33:00,
2013-07-09 05:22:00,68.0,67.0,-100.00,SSW,200,6.0,9.0,95,0.55,,,-99.99,,2013-07-09 09:22:00,
2013-07-09 05:34:00,68.0,67.0,-100.00,SSW,200,6.0,9.0,95,0.55,,,-99.99,,2013-07-09 09:34:00,
2013-07-09 05:53:00,68.0,67.0,-100.00,SSW,195,4.0,9.0,95,0.00,,,-99.99,,2013-07-09 09:53:00,
2013-07-09 06:11:00,69.0,67.0,-100.00,SSW,205,2.0,9.0,94,0.00,,,-99.99,,2013-07-09 10:11:00,
2013-07-09 06:22:00,69.0,67.0,-100.00,ESE,110,0.0,6.0,95,0.00,,,-99.99,,2013-07-09 10:22:00,
2013-07-09 06:33:00,69.0,67.0,-100.00,South,180,2.0,6.0,95,0.00,,,-99.99,,2013-07-09 10:33:00,
2013-07-09 06:52:00,69.0,67.0,-100.00,SSW,200,2.0,7.0,95,2.24,,,-99.99,,2013-07-09 10:52:00,
2013-07-09 07:11:00,69.0,68.0,-100.00,SSW,210,3.0,6.0,95,0.00,,,-99.99,,2013-07-09 11:11:00,
2013-07-09 07:22:00,69.0,68.0,-100.00,South,190,2.0,9.0,95,0.00,,,-99.99,,2013-07-09 11:22:00,
2013-07-09 07:34:00,69.0,68.0,-100.00,SSW,205,4.0,7.0,95,0.00,,,-99.99,,2013-07-09 11:34:00,
2013-07-09 07:42:00,69.0,68.0,-100.00,South,190,1.0,9.0,95,0.00,,,-99.99,,2013-07-09 11:42:00,
2013-07-09 08:02:00,70.0,68.0,-100.00,SSW,200,3.0,7.0,94,0.00,,,-99.99,,2013-07-09 12:02:00,
2013-07-09 08:11:00,70.0,68.0,-100.00,South,185,4.0,9.0,94,0.00,,,-99.99,,2013-07-09 12:11:00,
2013-07-09 08:22:00,70.0,68.0,-100.00,SSW,195,3.0,6.0,94,0.00,,,-99.99,,2013-07-09 12:22:00,
2013-07-09 08:33:00,70.0,68.0,-100.00,East,100,2.0,8.0,94,0.00,,,-99.99,,2013-07-09 12:33:00,
2013-07-09 08:43:00,70.0,68.0,-100.00,SSE,165,1.0,6.0,94,0.00,,,-99.99,,2013-07-09 12:43:00,
2013-07-09 08:52:00,70.0,68.0,-100.00,SE,145,2.0,7.0,94,0.00,,,-99.99,,2013-07-09 12:52:00,
2013-07-09 09:01:00,70.0,68.0,-100.00,SSW,200,6.0,9.0,94,0.00,,,-99.99,,2013-07-09 13:01:00,
2013-07-09 09:11:00,70.0,68.0,-100.00,ESE,120,1.0,8.0,93,0.00,,,-99.99,,2013-07-09 13:11:00,
2013-07-09 09:22:00,70.0,68.0,-100.00,West,270,2.0,7.0,93,0.00,,,-99.99,,2013-07-09 13:22:00,
2013-07-09 09:33:00,70.0,69.0,-100.00,SE,135,2.0,5.0,94,0.00,,,-99.99,,2013-07-09 13:33:00,
2013-07-09 09:53:00,71.0,69.0,-100.00,SE,130,2.0,7.0,93,0.00,,,-99.99,,2013-07-09 13:53:00,
2013-07-09 10:11:00,71.0,69.0,-100.00,WNW,300,2.0,9.0,92,0.00,,,-99.99,,2013-07-09 14:11:00,
2013-07-09 10:22:00,71.0,69.0,-100.00,SSW,210,2.0,6.0,92,0.00,,,-99.99,,2013-07-09 14:22:00,
2013-07-09 10:34:00,71.0,69.0,-100.00,SSW,200,3.0,6.0,94,0.00,,,-99.99,,2013-07-09 14:34:00,
2013-07-09 10:53:00,73.0,70.0,-100.00,SSW,205,3.0,7.0,91,0.00,,,-99.99,,2013-07-09 14:53:00,
2013-07-09 11:52:00,76.0,71.0,-100.00,SSW,195,4.0,7.0,84,0.00,,,-99.99,,2013-07-09 15:52:00,
2013-07-09 12:02:00,76.0,72.0,-100.00,South,185,4.0,7.0,84,0.00,,,-99.99,,2013-07-09 16:02:00,
2013-07-09 12:52:00,79.0,72.0,-100.00,SSW,200,4.0,11.0,79,-99.99,,,-99.99,,2013-07-09 16:52:00,
2013-07-09 13:53:00,82.0,73.0,-100.00,SSW,210,2.0,9.0,72,-99.99,,,-99.99,,2013-07-09 17:53:00,
2013-07-09 14:02:00,82.0,72.0,-100.00,SW,215,2.0,8.0,71,-99.99,,,-99.99,,2013-07-09 18:02:00,
2013-07-09 14:11:00,83.0,73.0,-100.00,SSW,210,4.0,11.0,72,-99.99,,,-99.99,,2013-07-09 18:11:00,
2013-07-09 14:22:00,82.0,72.0,-100.00,South,185,2.0,7.0,72,-99.99,,,-99.99,,2013-07-09 18:22:00,
2013-07-09 14:32:00,84.0,73.0,-100.00,SSW,200,3.0,9.0,69,-99.99,,,-99.99,,2013-07-09 18:32:00,
2013-07-09 14:52:00,85.0,73.0,-100.00,NNW,330,2.0,7.0,69,-99.99,,,-99.99,,2013-07-09 18:52:00,
2013-07-09 15:33:00,84.0,73.0,-100.00,South,185,3.0,8.0,70,-99.99,,,-99.99,,2013-07-09 19:33:00,
2013-07-09 15:42:00,85.0,73.0,-100.00,WSW,255,2.0,7.0,67,-99.99,,,-99.99,,2013-07-09 19:42:00,
2013-07-09 15:52:00,86.0,73.0,-100.00,WNW,290,3.0,6.0,66,-99.99,,,-99.99,,2013-07-09 19:52:00,
2013-07-09 16:02:00,86.0,74.0,-100.00,SSW,200,2.0,7.0,66,-99.99,,,-99.99,,2013-07-09 20:02:00,
2013-07-09 17:32:00,78.0,75.0,-100.00,SE,145,1.0,5.0,88,0.00,,,-99.99,,2013-07-09 21:32:00,
2013-07-09 17:42:00,80.0,74.0,-100.00,South,190,3.0,9.0,80,-99.99,,,-99.99,,2013-07-09 21:42:00,
2013-07-09 17:52:00,82.0,74.0,-100.00,SSW,195,3.0,7.0,78,-99.99,,,-99.99,,2013-07-09 21:52:00,
2013-07-09 18:11:00,80.0,73.0,-100.00,WSW,245,7.0,12.0,77,-99.99,,,-99.99,,2013-07-09 22:11:00,
2013-07-09 18:22:00,80.0,73.0,-100.00,West,275,2.0,9.0,78,-99.99,,,-99.99,,2013-07-09 22:22:00,
2013-07-09 18:33:00,80.0,71.0,-100.00,West,275,2.0,7.0,74,-99.99,,,-99.99,,2013-07-09 22:33:00,
2013-07-09 18:53:00,77.0,69.0,-100.00,NNE,25,5.0,14.0,75,-99.99,,,-99.99,,2013-07-09 22:53:00,
2013-07-09 19:12:00,76.0,69.0,-100.00,SW,235,4.0,9.0,80,-99.99,,,-99.99,,2013-07-09 23:12:00,
2013-07-09 19:22:00,75.0,69.0,-100.00,WNW,285,4.0,12.0,79,-99.99,,,-99.99,,2013-07-09 23:22:00,
2013-07-09 20:22:00,73.0,69.0,-100.00,WNW,295,2.0,6.0,87,0.00,,,-99.99,,2013-07-10 00:22:00,
2013-07-09 20:33:00,73.0,69.0,-100.00,SW,230,1.0,5.0,87,0.00,,,-99.99,,2013-07-10 00:33:00,
2013-07-09 21:22:00,72.0,69.0,-100.00,SE,140,0.0,3.0,92,0.00,,,-99.99,,2013-07-10 01:22:00,
2013-07-09 21:43:00,72.0,69.0,-100.00,SSE,160,1.0,6.0,91,1.69,,,-99.99,,2013-07-10 01:43:00,
2013-07-09 21:53:00,72.0,69.0,-100.00,South,175,1.0,6.0,91,0.00,,,-99.99,,2013-07-10 01:53:00,
2013-07-09 22:02:00,72.0,69.0,-100.00,SSW,205,1.0,4.0,91,0.00,,,-99.99,,2013-07-10 02:02:00,
2013-07-09 22:11:00,72.0,69.0,-100.00,SSW,210,2.0,4.0,91,0.00,,,-99.99,,2013-07-10 02:11:00,
2013-07-09 22:22:00,72.0,69.0,-100.00,South,180,1.0,4.0,91,0.55,,,-99.99,,2013-07-10 02:22:00,
2013-07-09 22:34:00,71.0,69.0,-100.00,SSE,150,0.0,2.0,93,0.55,,,-99.99,,2013-07-10 02:34:00,
2013-07-09 22:53:00,71.0,69.0,-100.00,SSW,200,0.0,4.0,93,0.00,,,-99.99,,2013-07-10 02:53:00,
2013-07-09 23:01:00,71.0,69.0,-100.00,SW,235,1.0,4.0,93,0.00,,,-99.99,,2013-07-10 03:01:00,
2013-07-09 23:12:00,71.0,69.0,-100.00,SSW,210,1.0,6.0,93,0.55,,,-99.99,,2013-07-10 03:12:00,
2013-07-09 23:22:00,70.0,69.0,-100.00,SSW,200,2.0,7.0,94,3.39,,,-99.99,,2013-07-10 03:22:00,
2013-07-09 23:32:00,70.0,69.0,-100.00,West,260,1.0,5.0,95,0.00,,,-99.99,,2013-07-10 03:32:00,
2013-07-09 23:52:00,70.0,69.0,-100.00,South,180,1.0,4.0,95,0.00,,,-99.99,,2013-07-10 03:52:00,